SAS481 EDDH-EGCC

Flight info

Callsign SAS481
Flight time 1h 20m
Altitude 36000
Route WSN5C WSN N125 ITMIZ DCT MIMVA DCT OTBED
Aircraft B738/M-SDE2E3FGHIRWXY/LB1

Departure

Time 2026-05-06 11:39
Airport Hamburg Helmut Schmidt Airport (EDDH)

Arrival

Time 2026-05-06 12:59
Airport Manchester Airport (EGCC)
Time Latitude Longitude Altitude Speed Heading
2026-05-06 11:03 53.62737 10.00305 47 ft 0 kts 64°
2026-05-06 11:26 53.62736 10.00302 47 ft 1 kts 64°
2026-05-06 11:27 53.62730 10.00281 47 ft 2 kts 63°
2026-05-06 11:27 53.62723 10.00257 47 ft 2 kts 64°
2026-05-06 11:27 53.62717 10.00236 47 ft 1 kts 63°
2026-05-06 11:27 53.62712 10.00220 47 ft 2 kts 46°
2026-05-06 11:28 53.62699 10.00207 47 ft 2 kts 14°
2026-05-06 11:28 53.62685 10.00207 47 ft 2 kts 343°
2026-05-06 11:28 53.62678 10.00212 47 ft 1 kts 328°
2026-05-06 11:28 53.62675 10.00215 47 ft 0 kts 332°
2026-05-06 11:31 53.62692 10.00200 47 ft 6 kts 333°
2026-05-06 11:31 53.62739 10.00160 46 ft 7 kts 333°
2026-05-06 11:32 53.62783 10.00124 46 ft 6 kts 333°
2026-05-06 11:32 53.62823 10.00075 46 ft 8 kts 306°
2026-05-06 11:32 53.62807 9.99968 46 ft 12 kts 212°
2026-05-06 11:32 53.62725 9.99889 46 ft 13 kts 208°
2026-05-06 11:33 53.62647 9.99791 46 ft 14 kts 239°
2026-05-06 11:33 53.62622 9.99620 45 ft 15 kts 260°
2026-05-06 11:33 53.62602 9.99436 45 ft 16 kts 259°
2026-05-06 11:33 53.62578 9.99236 44 ft 17 kts 259°
2026-05-06 11:34 53.62555 9.99028 44 ft 18 kts 259°
2026-05-06 11:34 53.62530 9.98803 44 ft 19 kts 259°
2026-05-06 11:34 53.62503 9.98571 43 ft 21 kts 259°
2026-05-06 11:34 53.62475 9.98322 42 ft 22 kts 259°
2026-05-06 11:35 53.62422 9.98083 41 ft 21 kts 238°
2026-05-06 11:35 53.62331 9.97890 40 ft 20 kts 230°
2026-05-06 11:35 53.62241 9.97710 39 ft 19 kts 230°
2026-05-06 11:35 53.62154 9.97533 38 ft 18 kts 230°
2026-05-06 11:36 53.62073 9.97369 38 ft 17 kts 231°
2026-05-06 11:36 53.61998 9.97216 38 ft 16 kts 230°
2026-05-06 11:36 53.61927 9.97073 39 ft 14 kts 230°
2026-05-06 11:36 53.61863 9.96943 40 ft 15 kts 230°
2026-05-06 11:37 53.61786 9.96787 40 ft 19 kts 230°
2026-05-06 11:37 53.61692 9.96598 41 ft 15 kts 231°
2026-05-06 11:37 53.61685 9.96441 42 ft 11 kts 313°
2026-05-06 11:37 53.61775 9.96423 42 ft 16 kts
2026-05-06 11:38 53.61890 9.96501 41 ft 20 kts 50°
2026-05-06 11:38 53.62005 9.96741 40 ft 42 kts 50°
2026-05-06 11:38 53.62342 9.97421 38 ft 108 kts 50°
2026-05-06 11:38 53.62954 9.98659 67 ft 159 kts 50°
2026-05-06 11:39 53.63642 10.00043 769 ft 156 kts 49°
2026-05-06 11:39 53.64348 10.01445 1375 ft 163 kts 52°
2026-05-06 11:39 53.65073 10.02943 1961 ft 170 kts 51°
2026-05-06 11:39 53.65844 10.04528 2436 ft 183 kts 51°
2026-05-06 11:40 53.66683 10.06232 2934 ft 195 kts 50°
2026-05-06 11:40 53.67649 10.07825 3620 ft 200 kts 37°
2026-05-06 11:40 53.68958 10.08684 4263 ft 210 kts 12°
2026-05-06 11:40 53.70422 10.08654 4902 ft 219 kts 355°
2026-05-06 11:41 53.71914 10.07798 5355 ft 238 kts 332°
2026-05-06 11:41 53.73093 10.05743 5702 ft 260 kts 304°
2026-05-06 11:41 53.73918 10.02965 6157 ft 272 kts 297°
2026-05-06 11:41 53.74663 9.99915 6589 ft 286 kts 288°
2026-05-06 11:42 53.74904 9.96597 7207 ft 291 kts 265°
2026-05-06 11:42 53.74361 9.93380 7970 ft 289 kts 247°
2026-05-06 11:42 53.73544 9.90265 8650 ft 290 kts 246°
2026-05-06 11:42 53.72776 9.87167 9305 ft 291 kts 253°
2026-05-06 11:43 53.72401 9.83822 9964 ft 291 kts 265°
2026-05-06 11:43 53.72262 9.80372 10346 ft 303 kts 267°
2026-05-06 11:43 53.72130 9.76731 10637 ft 318 kts 266°
2026-05-06 11:44 53.71709 9.68968 11160 ft 348 kts 265°
2026-05-06 11:44 53.71437 9.64831 11430 ft 361 kts 264°
2026-05-06 11:44 53.71151 9.60643 12033 ft 365 kts 264°
2026-05-06 11:44 53.70854 9.56397 12697 ft 366 kts 264°
2026-05-06 11:45 53.70554 9.52172 13341 ft 368 kts 264°
2026-05-06 11:45 53.70250 9.47907 13975 ft 370 kts 264°
2026-05-06 11:45 53.69942 9.43569 14589 ft 373 kts 264°
2026-05-06 11:45 53.69637 9.39284 15265 ft 374 kts 264°
2026-05-06 11:46 53.69328 9.34920 15878 ft 376 kts 262°
2026-05-06 11:46 53.69013 9.30487 16469 ft 380 kts 262°
2026-05-06 11:46 53.68696 9.26132 17043 ft 383 kts 261°
2026-05-06 11:46 53.68370 9.21660 17571 ft 386 kts 261°
2026-05-06 11:47 53.68041 9.17138 18077 ft 390 kts 261°
2026-05-06 11:47 53.67708 9.12617 18586 ft 394 kts 261°
2026-05-06 11:47 53.67366 9.08019 19125 ft 397 kts 261°
2026-05-06 11:47 53.67023 9.03433 19672 ft 400 kts 261°
2026-05-06 11:48 53.66679 8.98795 20130 ft 404 kts 261°
2026-05-06 11:48 53.66328 8.94076 20703 ft 405 kts 261°
2026-05-06 11:48 53.65971 8.89354 21246 ft 407 kts 261°
2026-05-06 11:48 53.65612 8.84638 21786 ft 409 kts 261°
2026-05-06 11:49 53.65258 8.79935 22318 ft 410 kts 262°
2026-05-06 11:49 53.64896 8.75132 22738 ft 414 kts 261°
2026-05-06 11:49 53.64529 8.70374 23149 ft 418 kts 261°
2026-05-06 11:49 53.64147 8.65460 23647 ft 420 kts 261°
2026-05-06 11:50 53.63767 8.60578 24127 ft 423 kts 261°
2026-05-06 11:50 53.63387 8.55734 24611 ft 425 kts 261°
2026-05-06 11:50 53.62995 8.50746 25023 ft 428 kts 261°
2026-05-06 11:50 53.62607 8.45855 25457 ft 431 kts 261°
2026-05-06 11:51 53.62204 8.40794 25834 ft 435 kts 261°
2026-05-06 11:51 53.61805 8.35803 26243 ft 437 kts 261°
2026-05-06 11:51 53.61393 8.30688 26646 ft 440 kts 260°
2026-05-06 11:51 53.60982 8.25620 26981 ft 444 kts 260°
2026-05-06 11:52 53.60560 8.20460 27390 ft 446 kts 260°
2026-05-06 11:52 53.60137 8.15310 27814 ft 447 kts 260°
2026-05-06 11:52 53.59710 8.10155 28150 ft 451 kts 260°
2026-05-06 11:52 53.59275 8.04928 28591 ft 453 kts 260°
2026-05-06 11:53 53.58838 7.99678 28955 ft 456 kts 260°
2026-05-06 11:53 53.58405 7.94484 29408 ft 458 kts 260°
2026-05-06 11:53 53.57960 7.89183 29852 ft 459 kts 260°
2026-05-06 11:53 53.57518 7.83933 30596 ft 454 kts 260°
2026-05-06 11:54 53.57071 7.78653 31163 ft 452 kts 260°
2026-05-06 11:54 53.56633 7.73497 31675 ft 450 kts 260°
2026-05-06 11:54 53.56188 7.68291 32188 ft 448 kts 260°
2026-05-06 11:54 53.55745 7.63137 32707 ft 446 kts 260°
2026-05-06 11:55 53.55304 7.58045 33153 ft 444 kts 260°
2026-05-06 11:55 53.54861 7.52958 33625 ft 442 kts 260°
2026-05-06 11:55 53.54417 7.47869 34063 ft 441 kts 260°
2026-05-06 11:55 53.53971 7.42797 34485 ft 439 kts 260°
2026-05-06 11:56 53.53523 7.37724 34861 ft 437 kts 260°
2026-05-06 11:56 53.53078 7.32722 35186 ft 435 kts 259°
2026-05-06 11:56 53.52636 7.27764 35444 ft 434 kts 259°
2026-05-06 11:56 53.52187 7.22755 35697 ft 433 kts 259°
2026-05-06 11:57 53.51741 7.17804 35852 ft 434 kts 259°
2026-05-06 11:57 53.51292 7.12852 35886 ft 435 kts 259°
2026-05-06 11:57 53.50380 7.02842 35905 ft 433 kts 259°
2026-05-06 11:58 53.49466 6.92912 35898 ft 434 kts 260°
2026-05-06 11:58 53.48539 6.82933 35908 ft 434 kts 260°
2026-05-06 11:59 53.47603 6.72956 35909 ft 434 kts 260°
2026-05-06 11:59 53.46664 6.63042 35901 ft 433 kts 259°
2026-05-06 12:00 53.45711 6.53074 35900 ft 432 kts 259°
2026-05-06 12:00 53.44753 6.43141 35904 ft 433 kts 259°
2026-05-06 12:01 53.43789 6.33243 35901 ft 434 kts 259°
2026-05-06 12:01 53.42806 6.23255 35907 ft 434 kts 259°
2026-05-06 12:02 53.41822 6.13328 35906 ft 435 kts 259°
2026-05-06 12:02 53.40826 6.03376 35913 ft 434 kts 259°
2026-05-06 12:03 53.39828 5.93475 35924 ft 433 kts 259°
2026-05-06 12:03 53.38823 5.83601 35925 ft 434 kts 259°
2026-05-06 12:04 53.37803 5.73655 35926 ft 434 kts 259°
2026-05-06 12:04 53.36787 5.63835 35930 ft 433 kts 259°
2026-05-06 12:05 53.35754 5.53929 35929 ft 433 kts 259°
2026-05-06 12:05 53.34721 5.44113 35931 ft 434 kts 259°
2026-05-06 12:06 53.33690 5.34397 35933 ft 433 kts 258°
2026-05-06 12:06 53.32633 5.24514 35930 ft 433 kts 258°
2026-05-06 12:07 53.31574 5.14697 35932 ft 434 kts 258°
2026-05-06 12:07 53.30500 5.04803 35933 ft 435 kts 258°
2026-05-06 12:08 53.29416 4.94883 35928 ft 436 kts 258°
2026-05-06 12:08 53.28322 4.84968 35924 ft 434 kts 258°
2026-05-06 12:09 53.27221 4.75070 35918 ft 434 kts 258°
2026-05-06 12:09 53.26116 4.65233 35919 ft 434 kts 258°
2026-05-06 12:10 53.25002 4.55393 35920 ft 434 kts 258°
2026-05-06 12:10 53.23881 4.45565 35924 ft 433 kts 258°
2026-05-06 12:11 53.22756 4.35770 35924 ft 433 kts 258°
2026-05-06 12:11 53.21620 4.25967 35925 ft 434 kts 258°
2026-05-06 12:12 53.20465 4.16076 35929 ft 435 kts 258°
2026-05-06 12:12 53.19313 4.06287 35927 ft 434 kts 258°
2026-05-06 12:13 53.18144 3.96427 35930 ft 435 kts 258°
2026-05-06 12:13 53.16970 3.86589 35933 ft 434 kts 258°
2026-05-06 12:14 53.15797 3.76831 35939 ft 433 kts 258°
2026-05-06 12:14 53.14608 3.67009 35944 ft 432 kts 258°
2026-05-06 12:15 53.13420 3.57274 35944 ft 433 kts 258°
2026-05-06 12:15 53.12218 3.47504 35945 ft 433 kts 258°
2026-05-06 12:16 53.11024 3.37723 35942 ft 434 kts 259°
2026-05-06 12:16 53.10405 3.27775 35946 ft 435 kts 269°
2026-05-06 12:17 53.10768 3.17793 35945 ft 436 kts 275°
2026-05-06 12:17 53.11493 3.07802 35945 ft 435 kts 276°
2026-05-06 12:18 53.12263 2.97886 35951 ft 434 kts 276°
2026-05-06 12:18 53.12996 2.87941 35949 ft 435 kts 276°
2026-05-06 12:19 53.13686 2.78051 35797 ft 432 kts 276°
2026-05-06 12:19 53.14355 2.68117 35930 ft 436 kts 276°
2026-05-06 12:20 53.15017 2.58051 35948 ft 435 kts 275°
2026-05-06 12:20 53.15661 2.48085 35962 ft 435 kts 275°
2026-05-06 12:21 53.16294 2.38145 35963 ft 436 kts 275°
2026-05-06 12:21 53.16920 2.28172 35964 ft 435 kts 275°
2026-05-06 12:22 53.17539 2.18182 35967 ft 434 kts 275°
2026-05-06 12:22 53.18149 2.08212 35969 ft 434 kts 275°
2026-05-06 12:23 53.18746 1.98296 35975 ft 433 kts 275°
2026-05-06 12:23 53.19338 1.88330 35976 ft 434 kts 275°
2026-05-06 12:24 53.19924 1.78340 35979 ft 432 kts 275°
2026-05-06 12:24 53.20493 1.68466 35977 ft 433 kts 275°
2026-05-06 12:25 53.21061 1.58472 35978 ft 433 kts 275°
2026-05-06 12:25 53.21339 1.53529 36272 ft 433 kts 275°
2026-05-06 12:25 53.21621 1.48477 36081 ft 434 kts 275°
2026-05-06 12:26 53.22163 1.38664 35988 ft 427 kts 275°
2026-05-06 12:26 53.22701 1.28766 35983 ft 431 kts 274°
2026-05-06 12:27 53.23230 1.18891 35982 ft 429 kts 274°
2026-05-06 12:27 53.23748 1.09040 35982 ft 430 kts 274°
2026-05-06 12:28 53.24262 0.99114 35984 ft 429 kts 274°
2026-05-06 12:28 53.24763 0.89284 35981 ft 428 kts 274°
2026-05-06 12:29 53.25256 0.79457 35987 ft 428 kts 274°
2026-05-06 12:29 53.25743 0.69579 35988 ft 429 kts 274°
2026-05-06 12:30 53.26223 0.59678 35974 ft 427 kts 274°
2026-05-06 12:30 53.26456 0.54823 35795 ft 422 kts 274°
2026-05-06 12:30 53.26688 0.49957 35499 ft 416 kts 274°
2026-05-06 12:31 53.26912 0.45195 35211 ft 412 kts 274°
2026-05-06 12:31 53.27133 0.40454 34962 ft 410 kts 274°
2026-05-06 12:31 53.27350 0.35757 34715 ft 412 kts 274°
2026-05-06 12:31 53.27567 0.31011 34316 ft 414 kts 273°
2026-05-06 12:32 53.27785 0.26204 33606 ft 416 kts 273°
2026-05-06 12:32 53.28001 0.21383 32738 ft 421 kts 273°
2026-05-06 12:32 53.28218 0.16509 31811 ft 427 kts 273°
2026-05-06 12:32 53.28447 0.11605 30894 ft 432 kts 274°
2026-05-06 12:33 53.28817 0.06647 30204 ft 430 kts 278°
2026-05-06 12:33 53.29500 0.01816 29715 ft 424 kts 286°
2026-05-06 12:33 53.30497 -0.02718 29350 ft 416 kts 291°
2026-05-06 12:33 53.31657 -0.07094 29041 ft 408 kts 294°
2026-05-06 12:34 53.34180 -0.15675 29024 ft 419 kts 295°
2026-05-06 12:34 53.36786 -0.24381 29029 ft 418 kts 295°
2026-05-06 12:35 53.38061 -0.28681 28926 ft 416 kts 295°
2026-05-06 12:35 53.39340 -0.33026 28664 ft 412 kts 295°
2026-05-06 12:35 53.40572 -0.37237 28386 ft 406 kts 295°
2026-05-06 12:35 53.41812 -0.41505 28089 ft 409 kts 295°
2026-05-06 12:36 53.43055 -0.45804 27800 ft 412 kts 295°
2026-05-06 12:36 53.44292 -0.50097 27506 ft 410 kts 295°
2026-05-06 12:36 53.45532 -0.54412 27035 ft 409 kts 295°
2026-05-06 12:36 53.46744 -0.58638 26445 ft 402 kts 295°
2026-05-06 12:37 53.47937 -0.62806 25867 ft 398 kts 295°
2026-05-06 12:37 53.49132 -0.66992 25284 ft 396 kts 294°
2026-05-06 12:37 53.50303 -0.71100 24706 ft 393 kts 294°
2026-05-06 12:37 53.51473 -0.75218 24115 ft 390 kts 295°
2026-05-06 12:38 53.52633 -0.79303 23474 ft 387 kts 295°
2026-05-06 12:38 53.53786 -0.83373 22825 ft 382 kts 295°
2026-05-06 12:38 53.54910 -0.87343 22170 ft 378 kts 295°
2026-05-06 12:38 53.56021 -0.91278 21477 ft 375 kts 295°
2026-05-06 12:39 53.57117 -0.95166 20789 ft 372 kts 295°
2026-05-06 12:39 53.58180 -0.98940 20113 ft 368 kts 295°
2026-05-06 12:39 53.59260 -1.02784 19412 ft 364 kts 295°
2026-05-06 12:39 53.60278 -1.06630 18715 ft 360 kts 292°
2026-05-06 12:40 53.61084 -1.10454 18042 ft 357 kts 288°
2026-05-06 12:40 53.61731 -1.14445 17363 ft 353 kts 284°
2026-05-06 12:40 53.62277 -1.18420 17052 ft 347 kts 283°
2026-05-06 12:40 53.62795 -1.22416 17007 ft 350 kts 283°
2026-05-06 12:41 53.63314 -1.26415 16744 ft 346 kts 283°
2026-05-06 12:41 53.63828 -1.30318 16114 ft 347 kts 283°
2026-05-06 12:41 53.64357 -1.34288 15533 ft 345 kts 284°
2026-05-06 12:41 53.64881 -1.38190 15023 ft 343 kts 284°
2026-05-06 12:42 53.65401 -1.42049 14506 ft 340 kts 284°
2026-05-06 12:42 53.65741 -1.45965 13947 ft 340 kts 271°
2026-05-06 12:42 53.65320 -1.49884 13402 ft 340 kts 253°
2026-05-06 12:42 53.64434 -1.53538 12886 ft 339 kts 248°
2026-05-06 12:43 53.63436 -1.57085 12368 ft 338 kts 246°
2026-05-06 12:43 53.62409 -1.60610 11865 ft 335 kts 246°
2026-05-06 12:43 53.61377 -1.64134 11360 ft 333 kts 246°
2026-05-06 12:43 53.60367 -1.67587 10873 ft 331 kts 245°
2026-05-06 12:44 53.59359 -1.71037 10696 ft 318 kts 245°
2026-05-06 12:44 53.58405 -1.74294 10610 ft 304 kts 245°
2026-05-06 12:44 53.57501 -1.77371 10551 ft 290 kts 245°
2026-05-06 12:44 53.56628 -1.80335 10380 ft 281 kts 245°
2026-05-06 12:45 53.55758 -1.83289 10003 ft 280 kts 245°
2026-05-06 12:45 53.54895 -1.86231 9629 ft 280 kts 245°
2026-05-06 12:45 53.53186 -1.92065 9015 ft 275 kts 245°
2026-05-06 12:46 53.52350 -1.94927 9004 ft 277 kts 245°
2026-05-06 12:46 53.51504 -1.97826 8997 ft 278 kts 245°
2026-05-06 12:46 53.50651 -2.00753 8999 ft 277 kts 245°
2026-05-06 12:46 53.49817 -2.03613 9000 ft 277 kts 245°
2026-05-06 12:47 53.48969 -2.06520 8999 ft 277 kts 245°
2026-05-06 12:47 53.48122 -2.09404 9003 ft 277 kts 245°
2026-05-06 12:47 53.47270 -2.12305 8834 ft 272 kts 245°
2026-05-06 12:47 53.46433 -2.15155 8365 ft 276 kts 245°
2026-05-06 12:48 53.45545 -2.18002 8053 ft 273 kts 240°
2026-05-06 12:48 53.44503 -2.20627 7957 ft 271 kts 236°
2026-05-06 12:48 53.43417 -2.23167 7516 ft 274 kts 235°
2026-05-06 12:48 53.42306 -2.25743 7316 ft 265 kts 235°
2026-05-06 12:49 53.41254 -2.28175 7255 ft 252 kts 235°
2026-05-06 12:49 53.40237 -2.30525 7071 ft 247 kts 235°
2026-05-06 12:49 53.39238 -2.32837 7035 ft 245 kts 235°
2026-05-06 12:49 53.38245 -2.35142 6979 ft 243 kts 235°
2026-05-06 12:50 53.37252 -2.37449 6710 ft 241 kts 235°
2026-05-06 12:50 53.36275 -2.39720 6409 ft 241 kts 235°
2026-05-06 12:50 53.35298 -2.41993 6105 ft 239 kts 235°
2026-05-06 12:50 53.34343 -2.44218 5805 ft 237 kts 235°
2026-05-06 12:51 53.33384 -2.46452 5502 ft 236 kts 235°
2026-05-06 12:51 53.32438 -2.48659 5202 ft 234 kts 235°
2026-05-06 12:51 53.31488 -2.50875 4898 ft 233 kts 235°
2026-05-06 12:51 53.30541 -2.53093 4592 ft 232 kts 235°
2026-05-06 12:52 53.29604 -2.55298 4222 ft 233 kts 235°
2026-05-06 12:52 53.28672 -2.57501 3843 ft 232 kts 235°
2026-05-06 12:52 53.27748 -2.59698 3464 ft 231 kts 236°
2026-05-06 12:52 53.26819 -2.61859 3090 ft 230 kts 230°
2026-05-06 12:53 53.25629 -2.63467 2950 ft 215 kts 204°
2026-05-06 12:53 53.24244 -2.63957 2976 ft 194 kts 174°
2026-05-06 12:53 53.23019 -2.63311 2972 ft 179 kts 143°
2026-05-06 12:53 53.22241 -2.61788 2974 ft 173 kts 111°
2026-05-06 12:54 53.22084 -2.59825 2978 ft 169 kts 83°
2026-05-06 12:54 53.22262 -2.57889 2975 ft 169 kts 80°
2026-05-06 12:54 53.22441 -2.55966 2975 ft 169 kts 81°
2026-05-06 12:54 53.22739 -2.54239 2975 ft 168 kts 60°
2026-05-06 12:55 53.23383 -2.52608 2978 ft 168 kts 59°
2026-05-06 12:55 53.23931 -2.50879 2977 ft 168 kts 61°
2026-05-06 12:55 53.24551 -2.49215 2942 ft 163 kts 55°
2026-05-06 12:55 53.25187 -2.47757 2793 ft 151 kts 53°
2026-05-06 12:56 53.25818 -2.46371 2570 ft 149 kts 52°
2026-05-06 12:56 53.26452 -2.45015 2348 ft 147 kts 52°
2026-05-06 12:56 53.27089 -2.43673 2141 ft 148 kts 52°
2026-05-06 12:56 53.27727 -2.42340 1939 ft 147 kts 52°
2026-05-06 12:57 53.28371 -2.41006 1734 ft 147 kts 51°
2026-05-06 12:57 53.29010 -2.39672 1535 ft 147 kts 53°
2026-05-06 12:57 53.29658 -2.38325 1331 ft 147 kts 51°
2026-05-06 12:57 53.30309 -2.36998 1131 ft 149 kts 51°
2026-05-06 12:58 53.30956 -2.35657 926 ft 148 kts 51°
2026-05-06 12:58 53.31606 -2.34322 723 ft 149 kts 52°
2026-05-06 12:58 53.32251 -2.32989 531 ft 148 kts 51°
2026-05-06 12:58 53.32922 -2.31634 347 ft 152 kts 51°
2026-05-06 12:59 53.33579 -2.30272 197 ft 143 kts 51°
2026-05-06 12:59 53.34112 -2.29174 205 ft 88 kts 51°
2026-05-06 12:59 53.34368 -2.28673 214 ft 26 kts 40°
2026-05-06 12:59 53.34505 -2.28537 218 ft 23 kts 21°
2026-05-06 13:00 53.34652 -2.28443 221 ft 14 kts 21°
2026-05-06 13:00 53.34736 -2.28350 224 ft 15 kts 50°
2026-05-06 13:00 53.34802 -2.28210 227 ft 15 kts 52°
2026-05-06 13:00 53.34874 -2.28068 230 ft 16 kts 49°
2026-05-06 13:01 53.34950 -2.27915 232 ft 17 kts 52°
2026-05-06 13:01 53.35027 -2.27751 236 ft 18 kts 51°
2026-05-06 13:01 53.35107 -2.27586 239 ft 17 kts 52°
2026-05-06 13:01 53.35174 -2.27443 242 ft 14 kts 52°
2026-05-06 13:02 53.35228 -2.27332 245 ft 11 kts 51°
2026-05-06 13:02 53.35284 -2.27221 247 ft 14 kts 43°
2026-05-06 13:02 53.35348 -2.27192 248 ft 11 kts 346°
2026-05-06 13:02 53.35432 -2.27271 247 ft 17 kts 321°
2026-05-06 13:03 53.35543 -2.27421 245 ft 23 kts 321°
2026-05-06 13:03 53.35617 -2.27522 243 ft 1 kts 321°
2026-05-06 13:03 53.35617 -2.27523 243 ft 0 kts 321°
2026-05-06 13:05 53.35626 -2.27536 242 ft 2 kts 321°
2026-05-06 13:06 53.35646 -2.27563 242 ft 4 kts 321°
2026-05-06 13:06 53.35674 -2.27598 241 ft 5 kts 326°
2026-05-06 13:06 53.35724 -2.27638 240 ft 10 kts 339°
2026-05-06 13:06 53.35800 -2.27712 239 ft 15 kts 312°
2026-05-06 13:07 53.35875 -2.27843 237 ft 12 kts 332°
2026-05-06 13:07 53.35954 -2.27840 237 ft 11 kts
2026-05-06 13:07 53.36004 -2.27832 237 ft 7 kts
2026-05-06 13:07 53.36068 -2.27858 237 ft 10 kts 325°
2026-05-06 13:08 53.36120 -2.27942 236 ft 10 kts 315°
2026-05-06 13:08 53.36170 -2.28028 235 ft 10 kts 314°
2026-05-06 13:08 53.36222 -2.28113 235 ft 11 kts 315°
2026-05-06 13:08 53.36284 -2.28218 234 ft 14 kts 315°
2026-05-06 13:09 53.36361 -2.28347 232 ft 17 kts 315°
2026-05-06 13:09 53.36448 -2.28494 231 ft 17 kts 315°
2026-05-06 13:09 53.36530 -2.28632 230 ft 10 kts 314°
2026-05-06 13:09 53.36578 -2.28725 229 ft 10 kts 300°
2026-05-06 13:10 53.36628 -2.28768 229 ft 6 kts
2026-05-06 13:10 53.36666 -2.28793 229 ft 5 kts 321°
2026-05-06 13:10 53.36695 -2.28830 229 ft 2 kts 318°
2026-05-06 13:10 53.36700 -2.28839 229 ft 0 kts 316°